"TOA5","MOW","CPU:UNC_MeetingWaters","DataHourly"
"TIMESTAMP","SondeTempC","SpCond","DOSat","DOmg","pH","Turb","BattVolt_Min"
"TS","","","","","","",""
"","Smp","Smp","Smp","Smp","Smp","Smp","Min"
"2003-07-01 00:00:00",23.1399993896,0.197999998927,86.0,7.36000013351,6.98000001907,152.600006104,12.5600004196
"2003-07-01 01:00:00",22.8899993896,0.231000006199,86.5999984741,7.44000005722,7.05000019073,132.899993896,12.5399999619
"2003-07-01 02:00:00",22.7000007629,0.236000001431,86.5999984741,7.46999979019,7.11999988556,101.5,12.529999733
"2003-07-01 03:00:00",22.5100002289,0.236000001431,86.3000030518,7.46999979019,7.15000009537,70.3000030518,12.5100002289
"2003-07-01 04:00:00",22.3500003815,0.237000003457,84.5,7.32999992371,7.17000007629,56.0999984741,12.4899997711
"2003-07-01 05:00:00",22.2099990845,0.243000000715,88.3000030518,7.69000005722,7.17999982834,43.5,12.4799995422
"2003-07-01 06:00:00",22.0699996948,0.264999985695,88.8000030518,7.75,7.21000003815,33.0999984741,12.4600000381
"2003-07-01 07:00:00",21.9799995422,0.312000006437,88.5,7.73000001907,7.26000022888,28.0,12.4399995804
"2003-07-01 08:00:00",21.9500007629,0.31400001049,89.0,7.78999996185,7.30000019073,24.7999992371,12.4600000381
"2003-07-01 09:00:00",22.0,0.298999994993,90.0999984741,7.86999988556,7.32000017166,24.2999992371,12.5900001526
"2003-07-01 10:00:00",22.0799999237,0.280999988317,90.3000030518,7.88000011444,7.30999994278,29.2000007629,12.8299999237
"2003-07-01 11:00:00",22.2000007629,0.266000002623,90.8000030518,7.90000009537,7.30000019073,111.599998474,12.7899999619
"2003-07-01 12:00:00",22.3400001526,0.259999990463,90.8000030518,7.88000011444,7.28000020981,162.5,12.970000267
"2003-07-01 13:00:00",22.4899997711,0.266999989748,90.0,7.78999996185,7.30000019073,114.400001526,12.8800001144
"2003-07-01 14:00:00",22.5400009155,0.264999985695,89.4000015259,7.73000001907,7.28999996185,85.3000030518,12.8400001526
"2003-07-01 15:00:00",22.6000003815,0.270000010729,89.3000030518,7.71000003815,7.28000020981,153.800003052,12.8299999237
"2003-07-01 16:00:00",22.6200008392,0.291999995708,88.1999969482,7.61000013351,7.28000020981,1253.0,12.7600002289
"2003-07-01 17:00:00",22.6299991608,0.33599999547,87.4000015259,7.53999996185,7.30000019073,1240.0,12.7299995422
"2003-07-01 18:00:00",22.6200008392,0.356999993324,87.3000030518,7.53000020981,7.34000015259,697.5,12.6800003052
"2003-07-01 19:00:00",22.5900001526,0.347000002861,86.5,7.46999979019,7.32000017166,293.200012207,12.6300001144
"2003-07-01 20:00:00",22.5100002289,0.328999996185,85.1999969482,7.36999988556,7.28999996185,127.900001526,12.6300001144
"2003-07-01 21:00:00",22.3700008392,0.310000002384,84.4000015259,7.32000017166,7.26999998093,73.4000015259,12.6099996567
"2003-07-01 22:00:00",22.2399997711,0.300999999046,83.1999969482,7.23000001907,7.25,52.4000015259,12.6000003815
"2003-07-01 23:00:00",22.1200008392,0.293999999762,82.0999984741,7.15999984741,7.23000001907,43.0,12.5900001526
"2003-07-02 00:00:00",21.9899997711,0.298000007868,82.1999969482,7.17999982834,7.21999979019,36.5999984741,12.5699996948
"2003-07-02 01:00:00",21.8600006104,0.330000013113,83.0999984741,7.28000020981,7.21000003815,35.4000015259,12.5600004196
"2003-07-02 02:00:00",21.7399997711,0.363000005484,84.0999984741,7.38000011444,7.21999979019,29.8999996185,12.5399999619
"2003-07-02 03:00:00",21.6299991608,0.425999999046,87.5,7.69000005722,7.30000019073,49.2999992371,12.5200004578
"2003-07-02 04:00:00",21.7800006866,0.224000006914,89.3000030518,7.84000015259,7.30000019073,66.0,12.5
"2003-07-02 05:00:00",22.0200004578,0.0680000036955,93.5999984741,8.18000030518,7.17999982834,179.399993896,12.470000267
"2003-07-02 06:00:00",21.6599998474,0.0529999993742,94.1999969482,8.28999996185,7.01000022888,239.5,12.4499998093
"2003-07-02 07:00:00",21.2700004578,0.0520000010729,95.3000030518,8.44999980927,6.94000005722,253.100006104,12.4300003052
"2003-07-02 08:00:00",21.0799999237,0.0529999993742,95.4000015259,8.5,6.90000009537,268.899993896,12.4300003052
"2003-07-02 09:00:00",21.0699996948,0.0790000036359,93.3000030518,8.30000019073,6.92999982834,205.300003052,12.4200000763
"2003-07-02 10:00:00",21.2999992371,0.0599999986589,94.5,8.38000011444,6.96999979019,240.0,12.4499998093
"2003-07-02 11:00:00",21.2299995422,0.0909999981523,92.9000015259,8.23999977112,6.94000005722,137.699996948,12.4300003052
"2003-07-02 12:00:00",21.2299995422,0.122000001371,91.5999984741,8.13000011444,6.90999984741,139.100006104,12.4300003052
"2003-07-02 13:00:00",21.2299995422,0.134000003338,91.5,8.11999988556,6.98999977112,82.6999969482,12.4399995804
"2003-07-02 14:00:00",21.5200004578,0.138999998569,88.6999969482,7.82999992371,7.05000019073,95.0,12.5100002289
"2003-07-02 15:00:00",21.4699993134,0.152999997139,88.5,7.82000017166,7.01999998093,112.900001526,12.4300003052
"2003-07-02 16:00:00",23.0200004578,0.0439999997616,95.5,8.18999958038,7.07000017166,389.5,12.4300003052
"2003-07-02 17:00:00",22.5300006866,0.0790000036359,93.0999984741,8.06000041962,6.92000007629,339.399993896,12.6499996185
"2003-07-02 18:00:00",22.3700008392,0.0909999981523,91.9000015259,7.96999979019,6.90000009537,149.0,12.529999733
"2003-07-02 19:00:00",22.4899997711,0.119000002742,90.0,7.78999996185,6.86000013351,128.899993896,12.4600000381
"2003-07-02 20:00:00",22.3899993896,0.149000003934,88.3000030518,7.65999984741,6.92000007629,96.5999984741,12.4399995804
"2003-07-02 21:00:00",22.9899997711,0.0640000030398,92.0999984741,7.90000009537,7.01000022888,223.100006104,12.4300003052
"2003-07-02 22:00:00",22.3799991608,0.0949999988079,89.8000030518,7.80000019073,6.82999992371,185.899993896,12.4200000763
"2003-07-02 23:00:00",22.2199993134,0.12800000608,89.0,7.75,6.88999986649,164.699996948,12.4099998474
"2003-07-03 00:00:00",21.9400005341,0.151999995112,89.9000015259,7.86999988556,6.94000005722,118.400001526,12.4099998474
"2003-07-03 01:00:00",21.7600002289,0.168999999762,90.0,7.90000009537,7.01000022888,90.0,12.3999996185
"2003-07-03 02:00:00",21.6200008392,0.185000002384,89.6999969482,7.90000009537,7.05999994278,66.5999984741,12.3999996185
"2003-07-03 03:00:00",21.5300006866,0.195999994874,89.9000015259,7.92999982834,7.07999992371,58.0999984741,12.3999996185
"2003-07-03 04:00:00",21.4200000763,0.20000000298,89.8000030518,7.94000005722,7.11000013351,54.2000007629,12.3900003433
"2003-07-03 05:00:00",21.2999992371,0.204999998212,89.6999969482,7.94999980927,7.11000013351,44.5999984741,12.3800001144
"2003-07-03 06:00:00",21.1900005341,0.225999996066,90.1999969482,8.0,7.15000009537,37.7999992371,12.3800001144
"2003-07-03 07:00:00",21.1599998474,0.275999993086,89.6999969482,7.96999979019,7.21999979019,35.2999992371,12.3699998856
"2003-07-03 08:00:00",21.1499996185,0.266999989748,89.8000030518,7.98000001907,7.21999979019,32.0,12.3800001144
"2003-07-03 09:00:00",21.1900005341,0.254000008106,90.8000030518,8.06000041962,7.23999977112,53.5,12.5799999237
"2003-07-03 10:00:00",21.2299995422,0.232999995351,91.5999984741,8.11999988556,7.21999979019,110.699996948,12.6000003815
"2003-07-03 11:00:00",21.3700008392,0.231999993324,90.9000015259,8.03999996185,7.23000001907,289.399993896,12.8599996567
"2003-07-03 12:00:00",21.4899997711,0.270000010729,90.0999984741,7.94999980927,7.25,363.600006104,12.8699998856
"2003-07-03 13:00:00",21.7800006866,0.282999992371,90.5999984741,7.94999980927,7.28999996185,586.200012207,12.7100000381
"2003-07-03 14:00:00",21.8500003815,0.279000014067,90.5,7.92999982834,7.28000020981,323.700012207,12.7600002289
"2003-07-03 15:00:00",21.7199993134,0.27500000596,88.8000030518,7.80000019073,7.26000022888,236.899993896,12.6899995804
"2003-07-03 16:00:00",21.75,0.277000010014,88.5999984741,7.78000020981,7.23000001907,243.699996948,12.9799995422
"2003-07-03 17:00:00",21.7999992371,0.282000005245,88.4000015259,7.75,7.21999979019,293.799987793,12.6800003052
"2003-07-03 18:00:00",21.7999992371,0.270999997854,87.8000030518,7.69999980927,7.23999977112,292.399993896,12.7100000381
"2003-07-03 19:00:00",21.8099994659,0.261999994516,87.4000015259,7.67000007629,7.21999979019,220.600006104,12.6199998856
"2003-07-03 20:00:00",21.7700004578,0.261999994516,85.6999969482,7.53000020981,7.21000003815,235.300003052,12.5799999237
"2003-07-03 21:00:00",21.6599998474,0.263000011444,86.0999984741,7.57000017166,7.19000005722,177.800003052,12.5600004196
"2003-07-03 22:00:00",21.5499992371,0.264999985695,86.0999984741,7.59000015259,7.19999980927,197.399993896,12.5500001907
"2003-07-03 23:00:00",21.4099998474,0.270999997854,86.5,7.63999986649,7.21999979019,167.899993896,12.529999733
"2003-07-04 00:00:00",21.25,0.277000010014,86.5999984741,7.67999982834,7.23000001907,81.3000030518,12.5200004578
"2003-07-04 01:00:00",21.0799999237,0.284000009298,86.6999969482,7.71000003815,7.23000001907,50.2999992371,12.5100002289
"2003-07-04 02:00:00",20.8999996185,0.293000012636,87.5,7.80999994278,7.23000001907,37.9000015259,12.4899997711
"2003-07-04 03:00:00",20.7700004578,0.308999985456,87.9000015259,7.86999988556,7.25,32.4000015259,12.470000267
"2003-07-04 04:00:00",20.6599998474,0.31099998951,88.0999984741,7.90000009537,7.26000022888,28.6000003815,12.4600000381
"2003-07-04 05:00:00",20.5300006866,0.317999988794,88.9000015259,8.0,7.26000022888,23.8999996185,12.4499998093
"2003-07-04 06:00:00",20.3999996185,0.312999993563,89.3000030518,8.05000019073,7.28000020981,20.3999996185,12.4300003052
"2003-07-04 07:00:00",20.2800006866,0.347999989986,89.8000030518,8.10999965668,7.30999994278,18.7999992371,12.4200000763
"2003-07-04 08:00:00",20.2800006866,0.391999989748,90.0,8.13000011444,7.38000011444,17.1000003815,12.4099998474
"2003-07-04 09:00:00",20.4300003052,0.402999997139,90.6999969482,8.17000007629,7.42000007629,17.2999992371,12.4600000381
"2003-07-04 10:00:00",20.7099990845,0.386000007391,91.5,8.19999980927,7.42999982834,17.0,12.7600002289
"2003-07-04 11:00:00",21.2099990845,0.365000009537,92.6999969482,8.22000026703,7.42999982834,16.2999992371,13.1000003815
"2003-07-04 12:00:00",21.9899997711,0.33599999547,93.9000015259,8.21000003815,7.44000005722,14.6000003815,13.0200004578
"2003-07-04 13:00:00",22.5200004578,0.321000009775,93.9000015259,8.11999988556,7.44000005722,13.8000001907,12.9799995422
"2003-07-04 14:00:00",23.0699996948,0.310000002384,94.0,8.05000019073,7.42999982834,12.8000001907,12.9600000381
"2003-07-04 15:00:00",23.4500007629,0.31099998951,93.6999969482,7.96000003815,7.44000005722,12.1000003815,12.9399995804
"2003-07-04 16:00:00",23.5799999237,0.316000014544,92.5999984741,7.84999990463,7.42999982834,11.6999998093,12.7899999619
"2003-07-04 17:00:00",23.5,0.333000004292,91.4000015259,7.76000022888,7.44000005722,10.8000001907,12.75
"2003-07-04 18:00:00",23.3899993896,0.324999988079,90.0999984741,7.67000007629,7.42999982834,10.1999998093,12.6800003052
"2003-07-04 19:00:00",23.2999992371,0.31400001049,88.8000030518,7.57000017166,7.38999986649,10.3999996185,12.6300001144
"2003-07-04 20:00:00",23.1800003052,0.307000011206,88.1999969482,7.53000020981,7.34000015259,11.1000003815,12.6099996567
"2003-07-04 21:00:00",23.0,0.301999986172,87.9000015259,7.53999996185,7.32000017166,13.6999998093,12.5900001526
"2003-07-04 22:00:00",22.7099990845,0.307999998331,87.9000015259,7.57000017166,7.32000017166,14.3999996185,12.5799999237
"2003-07-04 23:00:00",22.4200000763,0.349000006914,87.9000015259,7.61999988556,7.34000015259,14.6000003815,12.5699996948
"2003-07-05 00:00:00",22.2000007629,0.386000007391,88.0,7.65999984741,7.38999986649,13.1000003815,12.5600004196
"2003-07-05 01:00:00",22.0400009155,0.405000001192,88.0999984741,7.69000005722,7.42999982834,11.8999996185,12.5500001907
"2003-07-05 02:00:00",21.8899993896,0.375999987125,88.3000030518,7.73000001907,7.42000007629,11.5,12.529999733
"2003-07-05 03:00:00",21.7600002289,0.34999999404,88.9000015259,7.80999994278,7.38999986649,11.3999996185,12.529999733
"2003-07-05 04:00:00",21.6200008392,0.324999988079,89.5,7.86999988556,7.38000011444,11.0,12.5100002289
"2003-07-05 05:00:00",21.5,0.317999988794,89.8000030518,7.92000007629,7.38000011444,10.1999998093,12.5100002289
"2003-07-05 06:00:00",21.3899993896,0.347000002861,89.6999969482,7.92999982834,7.40000009537,10.0,12.4899997711
"2003-07-05 07:00:00",21.3299999237,0.402000010014,89.6999969482,7.94000005722,7.46000003815,12.1999998093,12.4899997711
"2003-07-05 08:00:00",21.3600006104,0.381000012159,90.3000030518,7.98999977112,7.46999979019,16.2999992371,12.4799995422
"2003-07-05 09:00:00",21.4599990845,0.360000014305,90.9000015259,8.02999973297,7.46000003815,20.2999992371,12.5100002289
"2003-07-05 10:00:00",21.7000007629,0.351999998093,91.6999969482,8.06000041962,7.46000003815,21.5,12.7299995422
"2003-07-05 11:00:00",22.2099990845,0.335000008345,93.0,8.10000038147,7.46999979019,20.5,13.0600004196
"2003-07-05 12:00:00",22.9500007629,0.303999990225,94.0999984741,8.06999969482,7.46000003815,21.2999992371,13.0
"2003-07-05 13:00:00",23.3899993896,0.286000013351,94.5,8.03999996185,7.42999982834,21.2000007629,12.970000267
"2003-07-05 14:00:00",23.8299999237,0.289999991655,94.6999969482,7.98999977112,7.44999980927,18.6000003815,12.9499998093
"2003-07-05 15:00:00",24.1900005341,0.305000007153,94.5,7.92000007629,7.46999979019,15.1999998093,12.9399995804
"2003-07-05 16:00:00",24.3700008392,0.342999994755,93.0,7.76999998093,7.48999977112,14.3000001907,12.7899999619
"2003-07-05 17:00:00",24.3099994659,0.365999996662,91.5999984741,7.65999984741,7.51000022888,12.8000001907,12.7399997711
"2003-07-05 18:00:00",24.1700000763,0.360000014305,90.0,7.55000019073,7.5,13.1999998093,12.6700000763
"2003-07-05 19:00:00",24.0900001526,0.333999991417,88.6999969482,7.44999980927,7.46999979019,13.1000003815,12.6300001144
"2003-07-05 20:00:00",23.9400005341,0.310000002384,89.1999969482,7.51000022888,7.44000005722,14.6999998093,12.6099996567
"2003-07-05 21:00:00",23.6800003052,0.29699999094,89.3000030518,7.55999994278,7.40000009537,18.7000007629,12.6000003815
"2003-07-05 22:00:00",23.3700008392,0.291999995708,89.3000030518,7.59999990463,7.36999988556,21.2999992371,12.5900001526
"2003-07-05 23:00:00",23.1100006104,0.293000012636,89.4000015259,7.65000009537,7.36000013351,22.2999992371,12.5699996948
"2003-07-06 00:00:00",22.8899993896,0.296000003815,89.8000030518,7.71000003815,7.34999990463,19.1000003815,12.5600004196
"2003-07-06 01:00:00",22.7299995422,0.31099998951,89.9000015259,7.73999977112,7.38000011444,19.2000007629,12.5500001907
"2003-07-06 02:00:00",22.5599994659,0.358999997377,89.8000030518,7.76000022888,7.40999984741,17.7000007629,12.5399999619
"2003-07-06 03:00:00",22.4300003052,0.368000000715,89.8000030518,7.78000020981,7.42999982834,19.0,12.529999733
"2003-07-06 04:00:00",22.3099994659,0.358999997377,89.9000015259,7.80999994278,7.44000005722,18.7000007629,12.5100002289
"2003-07-06 05:00:00",22.1700000763,0.342000007629,90.8000030518,7.90000009537,7.42999982834,16.3999996185,12.5
"2003-07-06 06:00:00",22.0300006866,0.347999989986,90.5999984741,7.90999984741,7.44999980927,14.3000001907,12.4899997711
"2003-07-06 07:00:00",21.9300003052,0.365999996662,90.9000015259,7.94999980927,7.46999979019,15.5,12.470000267
"2003-07-06 08:00:00",21.9200000763,0.344000011683,91.0999984741,7.96999979019,7.46999979019,20.5,12.470000267
"2003-07-06 09:00:00",22.0100002289,0.314999997616,91.5999984741,8.0,7.44000005722,23.2999992371,12.470000267
"2003-07-06 10:00:00",22.2399997711,0.296000003815,92.4000015259,8.02999973297,7.42999982834,22.0,12.6700000763
"2003-07-06 11:00:00",22.6900005341,0.293999999762,94.0,8.10999965668,7.44000005722,22.2000007629,13.0500001907
"2003-07-06 12:00:00",23.4400005341,0.289999991655,95.4000015259,8.10999965668,7.44999980927,21.7999992371,12.9899997711
"2003-07-06 13:00:00",23.6800003052,0.291999995708,95.4000015259,8.07999992371,7.44999980927,22.2000007629,12.970000267
"2003-07-06 14:00:00",24.1299991608,0.303999990225,95.8000030518,8.03999996185,7.46999979019,18.7000007629,12.9499998093
"2003-07-06 15:00:00",24.5699996948,0.324999988079,95.4000015259,7.94000005722,7.5,16.8999996185,12.9399995804
"2003-07-06 16:00:00",24.7000007629,0.347000002861,94.0999984741,7.82000017166,7.53000020981,15.3999996185,12.779999733
"2003-07-06 17:00:00",24.6599998474,0.363000005484,92.6999969482,7.69999980927,7.53999996185,13.6000003815,12.7299995422
"2003-07-06 18:00:00",24.4699993134,0.372000008821,91.4000015259,7.61999988556,7.51999998093,12.1000003815,12.6599998474
"2003-07-06 19:00:00",24.2900009155,0.363000005484,90.4000015259,7.55999994278,7.48999977112,10.8000001907,12.6199998856
"2003-07-06 20:00:00",24.1200008392,0.344999998808,89.5,7.51000022888,7.48999977112,9.80000019073,12.6099996567
"2003-07-06 21:00:00",23.9500007629,0.32800000906,89.9000015259,7.57000017166,7.46000003815,9.30000019073,12.5900001526
"2003-07-06 22:00:00",23.7700004578,0.317000001669,90.4000015259,7.63999986649,7.46000003815,8.60000038147,12.5900001526
"2003-07-06 23:00:00",23.5,0.312000006437,90.8000030518,7.71000003815,7.42000007629,8.39999961853,12.5699996948
"2003-07-07 00:00:00",23.1499996185,0.308999985456,90.0,7.69000005722,7.36000013351,14.8000001907,12.5600004196
"2003-07-07 01:00:00",22.7800006866,0.456999987364,89.0,7.65999984741,7.48000001907,16.3999996185,12.5500001907
"2003-07-07 02:00:00",22.7000007629,0.344999998808,86.0,7.40999984741,7.40999984741,13.8999996185,12.529999733
"2003-07-07 03:00:00",22.5599994659,0.286000013351,84.9000015259,7.34000015259,7.30999994278,13.6000003815,12.5200004578
"2003-07-07 04:00:00",22.4099998474,0.264999985695,82.8000030518,7.17999982834,7.23000001907,16.7999992371,12.5
"2003-07-07 05:00:00",22.2900009155,0.275999993086,82.4000015259,7.15999984741,7.17999982834,18.6000003815,12.4899997711
"2003-07-07 06:00:00",22.1900005341,0.300000011921,83.0,7.23000001907,7.21000003815,19.5,12.470000267
"2003-07-07 07:00:00",22.1299991608,0.316000014544,85.0,7.40999984741,7.25,16.2999992371,12.4600000381
"2003-07-07 08:00:00",22.1299991608,0.317999988794,87.1999969482,7.59999990463,7.28999996185,15.1999998093,12.470000267
"2003-07-07 09:00:00",22.1800003052,0.301999986172,90.0999984741,7.84999990463,7.32999992371,18.7000007629,12.5200004578
"2003-07-07 10:00:00",22.2700004578,0.28900000453,91.8000030518,7.98000001907,7.34000015259,19.1000003815,12.8900003433
"2003-07-07 11:00:00",22.5799999237,0.282999992371,93.8000030518,8.10999965668,7.36999988556,19.2000007629,13.0799999237
"2003-07-07 12:00:00",23.2099990845,0.282000005245,95.5999984741,8.17000007629,7.38999986649,28.3999996185,13.029999733
"2003-07-07 13:00:00",23.5400009155,0.298000007868,95.5,8.10000038147,7.42000007629,41.0,12.8500003815
"2003-07-07 14:00:00",23.5300006866,0.300999999046,93.8000030518,7.96000003815,7.44000005722,35.0999984741,12.8800001144
"2003-07-07 15:00:00",23.8500003815,0.303999990225,94.0999984741,7.94000005722,7.44999980927,32.4000015259,12.9899997711
"2003-07-07 16:00:00",24.1499996185,0.305000007153,92.5,7.76000022888,7.44000005722,30.1000003815,12.720000267
"2003-07-07 17:00:00",24.2399997711,0.303999990225,90.3000030518,7.57000017166,7.42000007629,32.2999992371,12.7299995422
"2003-07-07 18:00:00",24.2000007629,0.308999985456,87.4000015259,7.32000017166,7.38000011444,29.7000007629,12.6700000763
"2003-07-07 19:00:00",24.1100006104,0.324999988079,85.0,7.13000011444,7.38000011444,23.7000007629,12.6300001144
"2003-07-07 20:00:00",23.9899997711,0.375999987125,83.3000030518,7.01000022888,7.38000011444,17.2000007629,12.6099996567
"2003-07-07 21:00:00",23.8400001526,0.400999993086,82.3000030518,6.94000005722,7.38999986649,15.8000001907,12.6099996567
"2003-07-07 22:00:00",23.6700000763,0.404000014067,82.1999969482,6.94999980927,7.40000009537,17.0,12.5900001526
"2003-07-07 23:00:00",23.5,0.409999996424,82.0999984741,6.96999979019,7.40000009537,18.7000007629,12.5900001526
"2003-07-08 00:00:00",23.3099994659,0.388999998569,82.5999984741,7.03000020981,7.38999986649,20.2999992371,12.5699996948
"2003-07-08 01:00:00",23.1499996185,0.388999998569,82.5999984741,7.05999994278,7.36000013351,14.5,12.5600004196
"2003-07-08 02:00:00",22.9599990845,0.40000000596,82.6999969482,7.09000015259,7.36000013351,9.39999961853,12.5500001907
"2003-07-08 03:00:00",22.7800006866,0.379000008106,84.1999969482,7.25,7.34999990463,8.30000019073,12.529999733
"2003-07-08 04:00:00",22.6000003815,0.361999988556,84.5999984741,7.30000019073,7.34000015259,7.90000009537,12.5100002289
"2003-07-08 05:00:00",22.4200000763,0.333000004292,85.6999969482,7.42999982834,7.34000015259,13.3999996185,12.4899997711
"2003-07-08 06:00:00",22.2800006866,0.317000001669,86.9000015259,7.55000019073,7.32999992371,14.5,12.470000267
"2003-07-08 07:00:00",22.1700000763,0.326000005007,87.6999969482,7.63000011444,7.34999990463,14.6000003815,12.4600000381
"2003-07-08 08:00:00",22.1599998474,0.356000006199,88.5,7.71000003815,7.38000011444,14.8999996185,12.4499998093
"2003-07-08 09:00:00",22.2700004578,0.365999996662,89.5999984741,7.78999996185,7.40999984741,16.3999996185,12.4600000381
"2003-07-08 10:00:00",22.5200004578,0.365000009537,90.8000030518,7.84999990463,7.44000005722,17.2000007629,12.6599998474
"2003-07-08 11:00:00",22.9799995422,0.363999992609,92.5,7.92999982834,7.46999979019,15.3999996185,13.0500001907
"2003-07-08 12:00:00",23.7399997711,0.342999994755,95.3000030518,8.06000041962,7.46999979019,15.3000001907,12.9799995422
"2003-07-08 13:00:00",24.1800003052,0.31099998951,95.8000030518,8.02999973297,7.46999979019,23.5,12.9399995804
"2003-07-08 14:00:00",24.6499996185,0.317999988794,97.0999984741,8.06999969482,7.48999977112,20.1000003815,12.9200000763
"2003-07-08 15:00:00",24.9699993134,0.330000013113,95.1999969482,7.86999988556,7.53000020981,13.5,12.8999996185
"2003-07-08 16:00:00",25.0100002289,0.354999989271,92.8000030518,7.65999984741,7.51000022888,12.8999996185,12.8100004196
"2003-07-08 17:00:00",24.9699993134,0.377000004053,89.1999969482,7.36999988556,7.48999977112,12.0,12.720000267
"2003-07-08 18:00:00",24.8799991608,0.384000003338,85.1999969482,7.05000019073,7.44000005722,16.2000007629,12.6700000763
"2003-07-08 19:00:00",24.7999992371,0.384999990463,82.9000015259,6.86999988556,7.40999984741,24.8999996185,12.6300001144
"2003-07-08 20:00:00",24.7000007629,0.370999991894,80.5,6.67999982834,7.36999988556,31.3999996185,12.6099996567
"2003-07-08 21:00:00",24.4500007629,0.358999997377,79.0999984741,6.59000015259,7.30000019073,30.8999996185,12.5900001526
"2003-07-08 22:00:00",24.1900005341,0.36700001359,78.5999984741,6.59000015259,7.30000019073,20.7999992371,12.5900001526
"2003-07-08 23:00:00",23.8700008392,0.43599998951,79.5999984741,6.71000003815,7.30999994278,23.3999996185,12.5799999237
"2003-07-09 00:00:00",23.6700000763,0.43599998951,79.0,6.67999982834,7.34999990463,33.2000007629,12.5600004196
"2003-07-09 01:00:00",23.5,0.409999996424,80.5,6.84000015259,7.32000017166,31.7999992371,12.5500001907
"2003-07-09 02:00:00",23.3600006104,0.379999995232,81.0999984741,6.90000009537,7.28000020981,25.2000007629,12.529999733
"2003-07-09 03:00:00",23.2099990845,0.351000010967,83.1999969482,7.11000013351,7.30999994278,22.3999996185,12.5100002289
"2003-07-09 04:00:00",23.0900001526,0.32800000906,85.4000015259,7.30999994278,7.32999992371,17.7999992371,12.5
"2003-07-09 05:00:00",22.9599990845,0.319000005722,85.1999969482,7.30999994278,7.34999990463,15.1999998093,12.4799995422
"2003-07-09 06:00:00",22.8500003815,0.340999990702,88.6999969482,7.63000011444,7.36999988556,13.3999996185,12.470000267
"2003-07-09 07:00:00",22.7800006866,0.368000000715,89.1999969482,7.67999982834,7.42000007629,12.3000001907,12.4499998093
"2003-07-09 08:00:00",22.7800006866,0.363999992609,89.5,7.71000003815,7.42999982834,11.6999998093,12.4499998093
"2003-07-09 09:00:00",22.8400001526,0.354000002146,90.3000030518,7.76000022888,7.44999980927,11.0,12.4600000381
"2003-07-09 10:00:00",23.0499992371,0.338999986649,91.5999984741,7.84000015259,7.46000003815,12.0,12.5900001526